Theta_e
289 288 287 286 285 284 284 284 284 283 282 282 282 282 281 282 282 282 282 281 282 282
287 286 285 285 284 283 283 282 282 281 280 280 280 280 280 280 280 280 281 281 281 281
285 284 284 284 282 282 282 281 280 279 279 279 279 279 279 279 279 279 279 279 279 279
284 283 283 281 281 281 280 279 278 278 278 277 277 278 277 277 277 277 277 277 277 277
283 281 280 280 279 280 278 278 278 277 277 276 276 276 276 275 275 275 275 275 275 275
280 279 279 278 278 278 277 277 277 276 275 275 275 274 274 274 274 274 274 274 274 274
279 278 278 278 277 276 276 275 275 275 274 274 273 273 273 273 273 273 274 275 275 275
278 278 277 276 275 275 274 274 274 273 273 273 273 273 273 273 273 273 274 275 275 275
277 276 275 275 274 273 273 272 272 272 272 271 272 274 275 275 274 274 273 272 273 275
275 273 273 273 272 271 271 271 271 271 271 271 271 274 275 275 274 273 273 273 273 273
273 272 271 270 269 270 270 270 270 270 270 269 271 273 274 275 274 273 273 273 273 273
272 270 269 268 269 269 269 269 269 269 269 268 268 272 274 275 273 272 273 274 274 274
270 269 268 268 268 269 268 268 269 268 268 268 268 272 274 275 273 272 273 274 275 275
268 268 268 268 268 267 266 267 266 267 269 270 271 271 273 275 274 273 273 272 271 272
Wind_Speed
13 9 8 9 7 6 6 6 6 5 7 9 10 9 10 8 8 10 9 13 11 10
14 13 11 10 9 7 7 6 6 7 9 9 10 11 11 8 11 11 10 11 12 11
14 12 10 10 10 9 8 7 7 8 10 10 10 10 11 9 11 12 9 9 13 13
14 13 11 10 9 8 8 7 8 9 9 10 10 10 11 12 13 14 14 13 14 16
14 12 11 11 10 9 9 8 8 8 9 10 10 10 11 12 12 14 14 15 16 17
14 13 13 11 10 10 9 8 7 8 10 10 10 10 11 12 13 14 14 15 16 17
16 14 12 10 9 8 7 6 7 8 9 9 10 10 11 13 14 14 14 15 16 17
14 12 11 9 9 7 6 6 6 7 9 9 9 8 10 13 14 15 16 16 16 18
13 11 10 9 8 7 6 6 7 8 9 9 7 13 17 17 14 16 17 17 17 18
13 11 10 9 8 7 7 6 7 8 8 9 10 15 17 20 13 15 16 17 18 18
12 11 10 9 8 8 7 8 7 7 6 8 10 14 17 20 15 15 17 18 19 21
11 11 11 9 9 7 5 5 5 5 6 7 9 15 18 19 14 16 18 18 19 20
10 10 10 8 7 4 3 6 5 5 6 9 8 13 18 18 11 16 15 18 18 23
11 10 9 8 6 5 5 4 4 6 7 7 6 8 17 21 13 12 15 15 16 14
Wind_Direction
192 191 199 203 203 214 232 248 261 275 276 272 278 283 277 273 274 277 276 275 270 273
189 191 191 195 201 213 224 239 252 261 268 273 271 275 280 281 283 283 283 277 276 274
183 185 189 189 198 208 216 225 243 252 258 264 271 277 279 280 277 279 274 273 274 270
180 183 184 192 199 204 214 222 234 247 262 270 272 276 277 275 278 279 280 277 275 274
173 174 184 191 196 196 210 219 234 244 257 263 268 270 271 278 279 280 279 279 278 275
175 177 184 190 190 198 209 222 233 243 251 259 267 273 276 276 277 277 275 275 275 277
179 179 177 180 185 197 212 230 237 251 257 263 270 275 276 280 282 280 277 277 277 278
173 168 167 171 180 180 206 229 248 258 265 270 273 278 282 286 288 285 285 283 283 279
164 159 167 168 166 171 203 228 242 252 262 271 273 284 289 288 287 294 294 290 285 282
159 160 164 160 162 179 197 223 241 251 259 278 283 283 290 301 297 292 288 288 291 288
155 152 155 164 176 187 194 213 236 256 274 274 280 292 303 307 300 297 291 289 288 285
156 154 157 171 186 192 197 226 247 260 267 278 281 299 313 318 306 297 295 293 290 289
150 151 159 167 172 179 216 234 244 268 279 270 275 305 322 319 305 301 302 299 300 301
149 153 158 157 157 179 218 241 260 267 273 267 297 316 317 318 313 308 309 316 311 308